TimeIST,TemperatureF,Dew PointF,Humidity,Sea Level PressureIn,VisibilityMPH,Wind Direction,Wind SpeedMPH,Gust SpeedMPH,PrecipitationIn,Events,Conditions,WindDirDegrees,DateUTC
12:00 AM,80.6,55.4,42,29.77,1.6,Variable,3.5,-,N/A,,Haze,0,2012-10-04 18:30:00
1:00 AM,80.6,55.4,42,29.77,1.6,Variable,2.3,-,N/A,,Haze,0,2012-10-04 19:30:00
2:00 AM,80.6,55.4,42,29.77,1.6,Calm,Calm,-,N/A,,Haze,0,2012-10-04 20:30:00
3:00 AM,78.8,55.4,44,29.77,1.6,Calm,Calm,-,N/A,,Haze,0,2012-10-04 21:30:00
4:30 AM,78.8,55.4,44,29.77,1.6,NNW,4.6,-,N/A,,Haze,340,2012-10-04 23:00:00
5:00 AM,78.8,55.4,44,29.77,1.6,Variable,4.6,-,N/A,,Haze,0,2012-10-04 23:30:00
5:30 AM,78,57,38,29.72,2,NNW,4.6,,,,Haze,340,2012-10-05 00:00:00
6:00 AM,78.8,57.2,47,29.80,1.6,Calm,Calm,-,N/A,,Haze,0,2012-10-05 00:30:00
7:00 AM,78.8,55.4,44,29.80,1.6,Variable,2.3,-,N/A,,Haze,0,2012-10-05 01:30:00
8:00 AM,82.4,55.4,39,29.83,1.9,Calm,Calm,-,N/A,,Haze,0,2012-10-05 02:30:00
8:30 AM,82,58,33,29.76,1,Calm,Calm,,,,Haze,,2012-10-05 03:00:00
9:00 AM,86.0,55.4,35,29.86,1.6,NW,4.6,-,N/A,,Haze,310,2012-10-05 03:30:00
10:00 AM,89.6,55.4,31,29.86,1.6,WNW,6.9,-,N/A,,Haze,290,2012-10-05 04:30:00
11:00 AM,91.4,55.4,29,29.86,2.5,WNW,9.2,-,N/A,,Haze,300,2012-10-05 05:30:00
12:00 PM,93.2,55.4,28,29.83,2.5,WNW,10.4,-,N/A,,Haze,300,2012-10-05 06:30:00
1:00 PM,95.0,55.4,26,29.80,2.5,West,10.4,-,N/A,,Haze,260,2012-10-05 07:30:00
1:30 PM,95.0,55.4,26,29.80,2.5,West,5.8,-,N/A,,Haze,260,2012-10-05 08:00:00
2:00 PM,95.0,53.6,25,29.80,2.5,West,8.1,-,N/A,,Haze,260,2012-10-05 08:30:00
2:30 PM,96,51,14,29.69,2,,3.5,,,,Haze,,2012-10-05 09:00:00
2:30 PM,95.0,53.6,25,29.77,2.5,Variable,6.9,-,N/A,,Haze,0,2012-10-05 09:00:00
3:00 PM,95.0,51.8,23,29.77,2.5,NW,5.8,-,N/A,,Haze,320,2012-10-05 09:30:00
3:30 PM,95.0,51.8,23,29.77,2.5,West,11.5,-,N/A,,Haze,270,2012-10-05 10:00:00
4:00 PM,95.0,53.6,25,29.77,2.5,West,9.2,-,N/A,,Haze,260,2012-10-05 10:30:00
4:30 PM,95.0,51.8,23,29.77,2.5,West,9.2,-,N/A,,Haze,280,2012-10-05 11:00:00
5:00 PM,93.2,53.6,26,29.77,2.5,WNW,6.9,-,N/A,,Haze,300,2012-10-05 11:30:00
5:30 PM,91,51,16,29.69,2,NW,4.6,,,,Haze,320,2012-10-05 12:00:00
6:00 PM,89.6,53.6,29,29.80,2.2,WNW,3.5,-,N/A,,Haze,300,2012-10-05 12:30:00
7:00 PM,87.8,53.6,31,29.80,1.6,Calm,Calm,-,N/A,,Haze,0,2012-10-05 13:30:00
8:00 PM,84.2,57.2,40,29.83,1.6,Calm,Calm,-,N/A,,Haze,0,2012-10-05 14:30:00
8:30 PM,83,58,32,29.76,1,Calm,Calm,,,,Haze,,2012-10-05 15:00:00
8:30 PM,82.4,57.2,42,29.83,1.6,Calm,Calm,-,N/A,,Haze,0,2012-10-05 15:00:00
9:00 PM,80.6,59.0,48,29.86,1.6,Calm,Calm,-,N/A,,Haze,0,2012-10-05 15:30:00
9:30 PM,80.6,59.0,48,29.86,1.6,Calm,Calm,-,N/A,,Haze,0,2012-10-05 16:00:00
10:30 PM,77.0,59.0,54,29.86,1.6,Calm,Calm,-,N/A,,Haze,0,2012-10-05 17:00:00
11:00 PM,78.8,59.0,51,29.86,1.6,Calm,Calm,-,N/A,,Haze,0,2012-10-05 17:30:00
11:30 PM,77.0,59.0,54,29.86,1.6,Calm,Calm,-,N/A,,Haze,0,2012-10-05 18:00:00